This demonstration page uses our WeatherBlox Daily Observations layout. Learn more.

Left ArrowRight Arrow

39.92423, -83.80882

Hourly Observations for January 11, 2021

Temp ( °F °C ) Dew Point ( °F °C ) Humidity (%) Winds ( mph kmh ) Pressure ( in mb ) Visibility ( mi km ) Precip ( " mm )
12:56 am 00:56 Partly Cloudy with Mist and Fog 26 -3.3 26 -3.3 100 100 Calm 30.31 1027 6 9.65604 0.01 0.254
1:56 am 01:56 Cloudy with Mist and Fog 27 -2.8 27 -2.8 100 100 W 3 6 30.33 1027 5 8.0467 0 0
2:56 am 02:56 Cloudy with Mist and Fog 28 -2.2 27 -2.8 96 96 NW 3 6 30.32 1027 6 9.65604 0 0
3:15 am 03:15 Cloudy with Mist and Fog 27 -3 27 -3 100 100 NW 5 7 30.35 1028 6 9.65604 0 0
3:41 am 03:41 Cloudy with Mist and Fog 28 -2 27 -3 93 93 Calm 30.33 1027 6 9.65604 0 0
3:56 am 03:56 Cloudy with Mist and Fog 28 -2.2 27 -2.8 96 96 NW 3 6 30.31 1026 6 9.65604 0 0
4:56 am 04:56 Cloudy with Mist and Fog 28 -2.2 27 -2.8 96 96 W 3 6 30.3 1026 6 9.65604 0 0
5:24 am 05:24 Cloudy with Mist and Fog 28 -2 27 -3 93 93 WNW 3 6 30.32 1027 6 9.65604 0 0
5:54 am 05:54 Cloudy with Mist and Fog 28 -2 27 -3 93 93 Calm 30.32 1027 6 9.65604 0 0
5:56 am 05:56 Cloudy with Mist and Fog 28 -2.2 27 -2.8 96 96 Calm 30.3 1026 6 9.65604 0 0
6:56 am 06:56 Cloudy with Mist and Fog 28 -2.2 27 -2.8 96 96 WSW 5 7 30.33 1027 6 9.65604 0 0
7:14 am 07:14 Cloudy with Mist and Fog 28 -2 27 -3 93 93 WSW 5 7 30.35 1028 6 9.65604 0 0
7:56 am 07:56 Cloudy 28 -2.2 27 -2.8 96 96 W 5 7 30.33 1027 7 11.26538 0 0
8:27 am 08:27 Cloudy with Mist and Fog 28 -2 27 -3 93 93 NW 7 11 30.34 1028 5 8.0467 0 0
8:44 am 08:44 Cloudy with Mist and Fog 28 -2 28 -2 100 100 NW 6 9 30.34 1028 3 4.82802 0 0
8:56 am 08:56 Cloudy with Mist and Fog 28 -2.2 28 -2.2 100 100 NW 8 13 30.33 1027 3 4.82802 0 0
9:05 am 09:05 Cloudy with Mist and Fog 28 -2 28 -2 100 100 NW 8 13 30.34 1028 2.5 4.02335 0 0
9:30 am 09:30 Cloudy with Mist and Fog 28 -2 28 -2 100 100 WNW 8 13 30.34 1028 3 4.82802 0.001 0.001
9:56 am 09:56 Cloudy with Mist and Fog 28 -2.2 27 -2.8 96 96 NW 7 11 30.34 1027 5 8.0467 0.001 0.001
10:11 am 10:11 Cloudy 27 -3 25 -4 93 93 WNW 9 15 30.37 1028 7 11.26538 0 0
10:23 am 10:23 Cloudy 27 -3 25 -4 93 93 WNW 7 11 30.36 1028 7 11.26538 0 0
10:30 am 10:30 Cloudy 28 -2 25 -4 86 86 W 8 13 30.36 1028 7 11.26538 0 0
10:56 am 10:56 Cloudy 28 -2.2 25 -3.9 88 88 W 6 9 30.35 1028 7 11.26538 0 0
11:56 am 11:56 Cloudy 28 -2.2 24 -4.4 85 85 W 10 17 30.32 1027 10 16.0934 0 0
12:56 pm 12:56 Cloudy 28 -2.2 23 -5 81 81 W 13 20 30.29 1026 10 16.0934 0 0
1:56 pm 13:56 Cloudy 27 -2.8 22 -5.6 81 81 W 13 20 30.29 1026 10 16.0934 0 0
2:56 pm 14:56 Cloudy 28 -2.2 21 -6.1 75 75 WSW 12 19 30.28 1026 10 16.0934 0 0
3:56 pm 15:56 Mostly Cloudy 28 -2.2 21 -6.1 75 75 WSW 8 13 30.28 1025 10 16.0934 0 0
4:56 pm 16:56 Cloudy 27 -2.8 22 -5.6 81 81 WSW 9 15 30.29 1026 10 16.0934 0 0
5:56 pm 17:56 Cloudy 26 -3.3 22 -5.6 84 84 WSW 10 17 30.29 1026 10 16.0934 0 0
6:56 pm 18:56 Cloudy 26 -3.3 22 -5.6 84 84 WSW 10 17 30.28 1026 10 16.0934 0 0
7:56 pm 19:56 Cloudy 25 -3.9 22 -5.6 88 88 WSW 6 9 30.29 1026 9 14.48406 0 0
8:56 pm 20:56 Cloudy 25 -3.9 22 -5.6 88 88 WSW 8 13 30.27 1025 9 14.48406 0 0
9:49 pm 21:49 Cloudy 25 -4 23 -5 93 93 W 9 15 30.29 1026 8 12.87472 0 0
9:56 pm 21:56 Cloudy 25 -3.9 23 -5 92 92 WSW 8 13 30.27 1025 8 12.87472 0 0
10:56 pm 22:56 Cloudy 25 -3.9 23 -5 92 92 W 9 15 30.28 1025 8 12.87472 0 0
11:56 pm 23:56 Cloudy 25 -3.9 23 -5 92 92 W 10 17 30.27 1025 8 12.87472 0 0

Powered by AerisWeather